EZY25RN EGKK-LJLJ

Flight info

Callsign EZY25RN
Flight time 1h 41m
Altitude 37000
Route ODVIK Y311 DVR UL9 KONAN DCT KOK DCT REMBA DCT RITAX DCT PITES DCT BABEG DCT KUMOM DCT LUMUS LUMUS4L
Aircraft A320/M-L/LB1

Departure

Time 2026-04-14 09:28
Airport London Gatwick Airport (EGKK)

Arrival

Time 2026-04-14 11:10
Airport Ljubljana Jože Pučnik Airport (LJLJ)
Time Latitude Longitude Altitude Speed Heading
2026-04-14 08:54 51.15893 -0.17226 212 ft 0 kts 347°
2026-04-14 09:00 51.15893 -0.17225 204 ft 0 kts 347°
2026-04-14 09:10 51.15892 -0.17225 204 ft 0 kts 347°
2026-04-14 09:16 51.15869 -0.17217 213 ft 4 kts 347°
2026-04-14 09:16 51.15842 -0.17207 210 ft 4 kts 347°
2026-04-14 09:17 51.15817 -0.17197 209 ft 5 kts 325°
2026-04-14 09:17 51.15807 -0.17171 215 ft 6 kts 258°
2026-04-14 09:17 51.15812 -0.17141 204 ft 5 kts 257°
2026-04-14 09:17 51.15812 -0.17140 204 ft 25 kts 257°
2026-04-14 09:20 51.15802 -0.17212 206 ft 8 kts 258°
2026-04-14 09:20 51.15786 -0.17327 207 ft 17 kts 257°
2026-04-14 09:20 51.15760 -0.17520 213 ft 19 kts 257°
2026-04-14 09:20 51.15730 -0.17734 208 ft 20 kts 257°
2026-04-14 09:21 51.15699 -0.17960 208 ft 22 kts 258°
2026-04-14 09:21 51.15669 -0.18173 207 ft 16 kts 257°
2026-04-14 09:21 51.15644 -0.18352 208 ft 17 kts 258°
2026-04-14 09:21 51.15627 -0.18486 204 ft 11 kts 257°
2026-04-14 09:22 51.15611 -0.18600 204 ft 10 kts 257°
2026-04-14 09:22 51.15591 -0.18743 208 ft 14 kts 257°
2026-04-14 09:22 51.15530 -0.18822 212 ft 13 kts 169°
2026-04-14 09:22 51.15428 -0.18784 204 ft 16 kts 168°
2026-04-14 09:23 51.15323 -0.18749 207 ft 14 kts 167°
2026-04-14 09:23 51.15222 -0.18713 204 ft 16 kts 168°
2026-04-14 09:23 51.15130 -0.18738 207 ft 15 kts 248°
2026-04-14 09:23 51.15103 -0.18928 204 ft 21 kts 257°
2026-04-14 09:24 51.15073 -0.19144 204 ft 20 kts 257°
2026-04-14 09:24 51.15042 -0.19367 213 ft 19 kts 258°
2026-04-14 09:24 51.15019 -0.19541 207 ft 16 kts 258°
2026-04-14 09:24 51.14994 -0.19725 204 ft 18 kts 257°
2026-04-14 09:25 51.14965 -0.19930 208 ft 20 kts 257°
2026-04-14 09:25 51.14934 -0.20156 207 ft 22 kts 257°
2026-04-14 09:25 51.14899 -0.20407 215 ft 24 kts 257°
2026-04-14 09:25 51.14862 -0.20678 203 ft 26 kts 257°
2026-04-14 09:26 51.14825 -0.20948 214 ft 17 kts 257°
2026-04-14 09:26 51.14799 -0.21129 204 ft 17 kts 252°
2026-04-14 09:26 51.14767 -0.21303 212 ft 11 kts 258°
2026-04-14 09:26 51.14736 -0.21399 204 ft 11 kts 207°
2026-04-14 09:27 51.14658 -0.21352 210 ft 14 kts 137°
2026-04-14 09:27 51.14577 -0.21312 207 ft 11 kts 163°
2026-04-14 09:27 51.14519 -0.21187 205 ft 17 kts 94°
2026-04-14 09:27 51.14542 -0.21002 213 ft 20 kts 77°
2026-04-14 09:28 51.14618 -0.20454 207 ft 86 kts 77°
2026-04-14 09:28 51.14789 -0.19203 209 ft 143 kts 78°
2026-04-14 09:28 51.15041 -0.17453 469 ft 165 kts 83°
2026-04-14 09:28 51.15293 -0.15712 1330 ft 161 kts 85°
2026-04-14 09:29 51.15539 -0.13887 1780 ft 179 kts 83°
2026-04-14 09:29 51.15809 -0.11829 2115 ft 201 kts 83°
2026-04-14 09:29 51.16112 -0.09531 2490 ft 222 kts 83°
2026-04-14 09:29 51.16448 -0.07006 3004 ft 239 kts 83°
2026-04-14 09:30 51.16802 -0.04325 3573 ft 257 kts 86°
2026-04-14 09:30 51.16842 -0.01447 4328 ft 263 kts 96°
2026-04-14 09:30 51.16792 0.01515 5155 ft 271 kts 95°
2026-04-14 09:30 51.16743 0.04509 6002 ft 277 kts 95°
2026-04-14 09:31 51.16690 0.07605 6846 ft 282 kts 93°
2026-04-14 09:31 51.16634 0.10761 7635 ft 288 kts 92°
2026-04-14 09:31 51.16576 0.13996 8392 ft 295 kts 92°
2026-04-14 09:31 51.16528 0.17277 9242 ft 298 kts 90°
2026-04-14 09:32 51.16522 0.20608 10062 ft 303 kts 89°
2026-04-14 09:32 51.16532 0.23992 10796 ft 307 kts 89°
2026-04-14 09:32 51.16559 0.30887 12327 ft 315 kts 89°
2026-04-14 09:33 51.16573 0.34399 13072 ft 319 kts 89°
2026-04-14 09:33 51.16584 0.37955 13824 ft 323 kts 89°
2026-04-14 09:33 51.16589 0.40338 14267 ft 325 kts 89°
2026-04-14 09:33 51.16593 0.43960 14926 ft 329 kts 89°
2026-04-14 09:34 51.16593 0.47624 15586 ft 333 kts 89°
2026-04-14 09:34 51.16591 0.51356 16022 ft 345 kts 89°
2026-04-14 09:34 51.16588 0.55298 16155 ft 366 kts 89°
2026-04-14 09:34 51.16584 0.59463 16344 ft 384 kts 89°
2026-04-14 09:35 51.16579 0.65168 17041 ft 393 kts 89°
2026-04-14 09:35 51.16575 0.69545 17648 ft 397 kts 89°
2026-04-14 09:35 51.16573 0.72527 18063 ft 400 kts 89°
2026-04-14 09:35 51.16566 0.76984 18642 ft 404 kts 89°
2026-04-14 09:36 51.16556 0.81476 19179 ft 408 kts 89°
2026-04-14 09:36 51.16541 0.86017 19703 ft 412 kts 89°
2026-04-14 09:36 51.16524 0.90546 20225 ft 416 kts 88°
2026-04-14 09:36 51.16504 0.95185 20791 ft 420 kts 88°
2026-04-14 09:37 51.16482 0.99853 21382 ft 422 kts 88°
2026-04-14 09:37 51.16461 1.04546 21927 ft 425 kts 88°
2026-04-14 09:37 51.16440 1.09275 22440 ft 429 kts 88°
2026-04-14 09:37 51.16415 1.14051 22942 ft 432 kts 87°
2026-04-14 09:38 51.16389 1.18861 23422 ft 436 kts 87°
2026-04-14 09:38 51.16361 1.23709 23867 ft 439 kts 87°
2026-04-14 09:38 51.16326 1.28593 24247 ft 443 kts 87°
2026-04-14 09:38 51.16285 1.33519 24622 ft 446 kts 87°
2026-04-14 09:39 51.16213 1.38479 24982 ft 450 kts 88°
2026-04-14 09:39 51.16044 1.43482 25344 ft 454 kts 90°
2026-04-14 09:39 51.15799 1.48504 25757 ft 456 kts 91°
2026-04-14 09:39 51.15509 1.53553 26118 ft 459 kts 91°
2026-04-14 09:40 51.15210 1.58626 26456 ft 461 kts 91°
2026-04-14 09:40 51.14920 1.63728 26789 ft 464 kts 91°
2026-04-14 09:40 51.14643 1.68869 27113 ft 467 kts 90°
2026-04-14 09:40 51.14384 1.74034 27437 ft 470 kts 90°
2026-04-14 09:41 51.14132 1.79237 27749 ft 473 kts 90°
2026-04-14 09:41 51.13879 1.84471 28057 ft 476 kts 89°
2026-04-14 09:41 51.13619 1.89735 28380 ft 478 kts 90°
2026-04-14 09:41 51.13350 1.95017 28755 ft 479 kts 89°
2026-04-14 09:42 51.13073 2.00305 29080 ft 480 kts 89°
2026-04-14 09:42 51.12788 2.05622 29383 ft 483 kts 89°
2026-04-14 09:42 51.12504 2.10891 29657 ft 485 kts 89°
2026-04-14 09:42 51.12215 2.16247 29922 ft 487 kts 89°
2026-04-14 09:43 51.11924 2.21638 30177 ft 489 kts 89°
2026-04-14 09:43 51.11634 2.27045 30409 ft 491 kts 89°
2026-04-14 09:43 51.11341 2.32476 30618 ft 493 kts 89°
2026-04-14 09:43 51.11042 2.37925 30851 ft 494 kts 89°
2026-04-14 09:44 51.10737 2.43346 31205 ft 491 kts 90°
2026-04-14 09:44 51.10426 2.48750 31536 ft 489 kts 90°
2026-04-14 09:44 51.10110 2.54133 31842 ft 489 kts 90°
2026-04-14 09:44 51.09795 2.59513 32143 ft 488 kts 90°
2026-04-14 09:45 51.09396 2.64874 32436 ft 491 kts 96°
2026-04-14 09:45 51.08581 2.70169 32727 ft 494 kts 102°
2026-04-14 09:45 51.07630 2.75422 33020 ft 494 kts 102°
2026-04-14 09:45 51.06677 2.80660 33317 ft 493 kts 102°
2026-04-14 09:46 51.05721 2.85896 33673 ft 492 kts 102°
2026-04-14 09:46 51.04769 2.91107 34030 ft 489 kts 102°
2026-04-14 09:46 51.03823 2.96298 34332 ft 488 kts 102°
2026-04-14 09:46 51.02878 3.01477 34588 ft 488 kts 102°
2026-04-14 09:47 51.01943 3.06583 34833 ft 487 kts 102°
2026-04-14 09:47 51.00996 3.11745 35065 ft 487 kts 102°
2026-04-14 09:47 51.00032 3.16975 35300 ft 487 kts 103°
2026-04-14 09:47 50.99091 3.22061 35519 ft 487 kts 103°
2026-04-14 09:48 50.98124 3.27280 35737 ft 486 kts 103°
2026-04-14 09:48 50.97180 3.32355 35972 ft 486 kts 103°
2026-04-14 09:48 50.96221 3.37482 36214 ft 484 kts 103°
2026-04-14 09:48 50.95258 3.42602 36430 ft 484 kts 103°
2026-04-14 09:49 50.94294 3.47709 36630 ft 484 kts 103°
2026-04-14 09:49 50.93329 3.52813 36825 ft 483 kts 103°
2026-04-14 09:49 50.92365 3.57923 37010 ft 483 kts 103°
2026-04-14 09:49 50.91402 3.63026 37175 ft 483 kts 103°
2026-04-14 09:50 50.90433 3.68130 37194 ft 484 kts 103°
2026-04-14 09:50 50.88488 3.78333 37211 ft 483 kts 104°
2026-04-14 09:51 50.86543 3.88499 37198 ft 482 kts 104°
2026-04-14 09:51 50.84600 3.98581 37209 ft 481 kts 104°
2026-04-14 09:52 50.82630 4.08713 37214 ft 482 kts 104°
2026-04-14 09:52 50.80662 4.18844 37212 ft 481 kts 104°
2026-04-14 09:53 50.78684 4.28950 37208 ft 481 kts 104°
2026-04-14 09:53 50.76690 4.39060 37213 ft 481 kts 104°
2026-04-14 09:54 50.74696 4.49142 37217 ft 481 kts 104°
2026-04-14 09:54 50.72692 4.59224 37218 ft 481 kts 104°
2026-04-14 09:55 50.70680 4.69287 37232 ft 480 kts 105°
2026-04-14 09:55 50.68670 4.79267 37238 ft 479 kts 105°
2026-04-14 09:56 50.66310 4.89088 37236 ft 482 kts 117°
2026-04-14 09:56 50.62274 4.97517 37229 ft 484 kts 135°
2026-04-14 09:57 50.57473 5.04956 37219 ft 484 kts 134°
2026-04-14 09:57 50.52667 5.12400 37223 ft 484 kts 134°
2026-04-14 09:58 50.47856 5.19819 37222 ft 484 kts 134°
2026-04-14 09:58 50.43050 5.27203 37224 ft 483 kts 134°
2026-04-14 09:59 50.38245 5.34559 37223 ft 483 kts 135°
2026-04-14 09:59 50.33437 5.41896 37215 ft 482 kts 135°
2026-04-14 10:00 50.28619 5.49213 37196 ft 482 kts 135°
2026-04-14 10:00 50.23835 5.56476 37222 ft 481 kts 135°
2026-04-14 10:01 50.19038 5.63758 37222 ft 480 kts 135°
2026-04-14 10:01 50.14234 5.70996 37219 ft 479 kts 135°
2026-04-14 10:02 50.09437 5.78193 37211 ft 478 kts 135°
2026-04-14 10:02 50.05165 5.86076 37207 ft 476 kts 125°
2026-04-14 10:03 50.01183 5.94298 37209 ft 476 kts 126°
2026-04-14 10:03 49.97194 6.02493 37208 ft 475 kts 126°
2026-04-14 10:04 49.93201 6.10654 37207 ft 474 kts 126°
2026-04-14 10:04 49.89211 6.18794 37203 ft 473 kts 126°
2026-04-14 10:05 49.85221 6.26908 37203 ft 473 kts 126°
2026-04-14 10:05 49.81253 6.34962 37210 ft 473 kts 127°
2026-04-14 10:06 49.77262 6.43061 37207 ft 472 kts 127°
2026-04-14 10:06 49.73321 6.51146 37204 ft 471 kts 122°
2026-04-14 10:07 49.70289 6.60080 37191 ft 469 kts 115°
2026-04-14 10:07 49.67425 6.69141 37189 ft 469 kts 115°
2026-04-14 10:08 49.64544 6.78199 37197 ft 469 kts 115°
2026-04-14 10:08 49.61672 6.87171 37193 ft 469 kts 115°
2026-04-14 10:09 49.58779 6.96197 37192 ft 470 kts 115°
2026-04-14 10:09 49.55882 7.05208 37188 ft 469 kts 115°
2026-04-14 10:10 49.52970 7.14217 37189 ft 469 kts 116°
2026-04-14 10:10 49.50056 7.23196 37196 ft 469 kts 115°
2026-04-14 10:11 49.47138 7.32174 37200 ft 469 kts 115°
2026-04-14 10:11 49.44220 7.41141 37199 ft 469 kts 116°
2026-04-14 10:12 49.41291 7.50084 37198 ft 469 kts 116°
2026-04-14 10:12 49.38356 7.59035 37199 ft 469 kts 116°
2026-04-14 10:13 49.35417 7.67946 37210 ft 467 kts 116°
2026-04-14 10:13 49.32475 7.76823 37207 ft 466 kts 116°
2026-04-14 10:14 49.29535 7.85674 37203 ft 465 kts 116°
2026-04-14 10:14 49.26593 7.94504 37205 ft 465 kts 116°
2026-04-14 10:15 49.23645 8.03327 37189 ft 465 kts 116°
2026-04-14 10:15 49.20718 8.12060 37192 ft 464 kts 117°
2026-04-14 10:16 49.17764 8.20823 37198 ft 463 kts 117°
2026-04-14 10:16 49.14808 8.29566 37195 ft 463 kts 117°
2026-04-14 10:17 49.11844 8.38309 37195 ft 463 kts 117°
2026-04-14 10:17 49.08885 8.47021 37195 ft 462 kts 117°
2026-04-14 10:18 49.04435 8.60056 37177 ft 462 kts 117°
2026-04-14 10:18 49.01451 8.68733 37184 ft 462 kts 117°
2026-04-14 10:19 48.98966 8.75939 37184 ft 462 kts 117°
2026-04-14 10:19 48.95490 8.86007 37193 ft 462 kts 117°
2026-04-14 10:20 48.92496 8.94636 37185 ft 461 kts 117°
2026-04-14 10:20 48.89991 9.01846 37179 ft 460 kts 117°
2026-04-14 10:21 48.87021 9.10391 37184 ft 460 kts 117°
2026-04-14 10:21 48.84019 9.18975 37184 ft 459 kts 118°
2026-04-14 10:22 48.81009 9.27531 37185 ft 459 kts 117°
2026-04-14 10:22 48.77997 9.36080 37183 ft 459 kts 118°
2026-04-14 10:23 48.74981 9.44633 37160 ft 459 kts 118°
2026-04-14 10:23 48.71967 9.53155 37156 ft 459 kts 118°
2026-04-14 10:24 48.68938 9.61657 37160 ft 459 kts 118°
2026-04-14 10:24 48.65863 9.70129 37141 ft 459 kts 120°
2026-04-14 10:25 48.62631 9.78395 37137 ft 460 kts 121°
2026-04-14 10:25 48.59286 9.86716 37139 ft 460 kts 121°
2026-04-14 10:26 48.55995 9.94940 37146 ft 461 kts 121°
2026-04-14 10:26 48.52711 10.03240 37152 ft 461 kts 121°
2026-04-14 10:27 48.49435 10.11538 37161 ft 460 kts 121°
2026-04-14 10:27 48.46118 10.19875 37157 ft 460 kts 121°
2026-04-14 10:28 48.42837 10.28076 37162 ft 460 kts 121°
2026-04-14 10:28 48.39531 10.36321 37164 ft 460 kts 121°
2026-04-14 10:29 48.36221 10.44551 37172 ft 459 kts 122°
2026-04-14 10:29 48.32918 10.52746 37163 ft 458 kts 122°
2026-04-14 10:30 48.29605 10.60917 37155 ft 457 kts 122°
2026-04-14 10:30 48.26294 10.69058 37152 ft 456 kts 122°
2026-04-14 10:31 48.22984 10.77199 37158 ft 456 kts 122°
2026-04-14 10:31 48.19680 10.85303 37155 ft 455 kts 123°
2026-04-14 10:32 48.16386 10.93341 37182 ft 454 kts 123°
2026-04-14 10:32 48.13082 11.01379 37175 ft 454 kts 122°
2026-04-14 10:33 48.09764 11.09442 37167 ft 453 kts 123°
2026-04-14 10:33 48.06445 11.17459 37158 ft 453 kts 123°
2026-04-14 10:34 48.01464 11.29462 37142 ft 453 kts 123°
2026-04-14 10:35 47.98135 11.37446 37138 ft 453 kts 123°
2026-04-14 10:35 47.94823 11.45365 37146 ft 453 kts 123°
2026-04-14 10:36 47.91490 11.53335 37140 ft 452 kts 124°
2026-04-14 10:36 47.88147 11.61293 37145 ft 452 kts 124°
2026-04-14 10:37 47.84809 11.69226 37155 ft 452 kts 124°
2026-04-14 10:37 47.81467 11.77139 37150 ft 453 kts 124°
2026-04-14 10:38 47.78108 11.85059 37146 ft 453 kts 124°
2026-04-14 10:38 47.74754 11.92951 37132 ft 453 kts 124°
2026-04-14 10:39 47.71380 12.00879 37140 ft 452 kts 124°
2026-04-14 10:39 47.68011 12.08776 37137 ft 452 kts 124°
2026-04-14 10:40 47.64639 12.16634 37129 ft 452 kts 124°
2026-04-14 10:40 47.61259 12.24497 37131 ft 452 kts 124°
2026-04-14 10:41 47.57863 12.32347 37124 ft 452 kts 125°
2026-04-14 10:41 47.54301 12.39986 37108 ft 450 kts 130°
2026-04-14 10:42 47.50454 12.47306 37114 ft 450 kts 130°
2026-04-14 10:42 47.46616 12.54590 37119 ft 449 kts 130°
2026-04-14 10:43 47.42778 12.61850 37097 ft 449 kts 130°
2026-04-14 10:43 47.38914 12.69131 37099 ft 449 kts 130°
2026-04-14 10:44 47.35081 12.76332 37090 ft 449 kts 130°
2026-04-14 10:44 47.31225 12.83569 37080 ft 449 kts 130°
2026-04-14 10:45 47.27368 12.90795 37068 ft 448 kts 130°
2026-04-14 10:45 47.25436 12.94397 36807 ft 447 kts 130°
2026-04-14 10:45 47.23509 12.97988 36539 ft 446 kts 130°
2026-04-14 10:45 47.21587 13.01563 35927 ft 446 kts 131°
2026-04-14 10:46 47.19659 13.05146 35099 ft 447 kts 131°
2026-04-14 10:46 47.17724 13.08741 34234 ft 449 kts 131°
2026-04-14 10:46 47.15785 13.12347 33289 ft 449 kts 131°
2026-04-14 10:46 47.13847 13.15945 32341 ft 449 kts 131°
2026-04-14 10:47 47.11899 13.19546 31329 ft 451 kts 130°
2026-04-14 10:47 47.09958 13.23125 30781 ft 444 kts 130°
2026-04-14 10:47 47.08045 13.26655 30150 ft 440 kts 130°
2026-04-14 10:47 47.06152 13.30149 29472 ft 434 kts 130°
2026-04-14 10:48 47.04284 13.33589 28860 ft 428 kts 130°
2026-04-14 10:48 47.02465 13.36937 28283 ft 422 kts 130°
2026-04-14 10:48 47.00645 13.40281 27696 ft 417 kts 130°
2026-04-14 10:48 46.98846 13.43584 27128 ft 413 kts 130°
2026-04-14 10:49 46.97065 13.46853 26536 ft 408 kts 129°
2026-04-14 10:49 46.95295 13.50088 25983 ft 404 kts 130°
2026-04-14 10:49 46.93543 13.53281 25437 ft 401 kts 129°
2026-04-14 10:49 46.91804 13.56449 24901 ft 398 kts 129°
2026-04-14 10:50 46.90076 13.59597 24372 ft 394 kts 129°
2026-04-14 10:50 46.88361 13.62712 23860 ft 391 kts 130°
2026-04-14 10:50 46.86665 13.65797 23318 ft 388 kts 129°
2026-04-14 10:50 46.84984 13.68853 22840 ft 384 kts 129°
2026-04-14 10:51 46.83319 13.71874 22374 ft 379 kts 129°
2026-04-14 10:51 46.81675 13.74857 21916 ft 375 kts 130°
2026-04-14 10:51 46.80049 13.77804 21457 ft 370 kts 130°
2026-04-14 10:51 46.78438 13.80719 21020 ft 367 kts 130°
2026-04-14 10:52 46.76842 13.83603 20556 ft 364 kts 130°
2026-04-14 10:52 46.75253 13.86470 20104 ft 362 kts 130°
2026-04-14 10:52 46.73677 13.89313 19652 ft 359 kts 130°
2026-04-14 10:52 46.72129 13.92104 19159 ft 358 kts 130°
2026-04-14 10:53 46.70567 13.94918 18720 ft 355 kts 130°
2026-04-14 10:53 46.69019 13.97706 18274 ft 353 kts 130°
2026-04-14 10:53 46.67477 14.00479 17789 ft 350 kts 130°
2026-04-14 10:53 46.65942 14.03231 17298 ft 348 kts 130°
2026-04-14 10:54 46.64420 14.05957 16837 ft 346 kts 130°
2026-04-14 10:54 46.62906 14.08667 16375 ft 344 kts 130°
2026-04-14 10:54 46.61397 14.11361 15920 ft 342 kts 130°
2026-04-14 10:54 46.59858 14.13999 15465 ft 340 kts 136°
2026-04-14 10:55 46.57938 14.15851 15047 ft 336 kts 158°
2026-04-14 10:55 46.55670 14.16577 14590 ft 334 kts 173°
2026-04-14 10:55 46.53354 14.16885 14126 ft 334 kts 175°
2026-04-14 10:55 46.51043 14.17168 13658 ft 332 kts 175°
2026-04-14 10:56 46.48747 14.17447 13224 ft 328 kts 175°
2026-04-14 10:56 46.46487 14.17712 12800 ft 323 kts 174°
2026-04-14 10:56 46.44254 14.17958 12342 ft 320 kts 175°
2026-04-14 10:56 46.42043 14.18210 11857 ft 318 kts 175°
2026-04-14 10:57 46.39858 14.18473 11316 ft 318 kts 175°
2026-04-14 10:57 46.37655 14.18755 10827 ft 316 kts 175°
2026-04-14 10:57 46.35469 14.19039 10359 ft 315 kts 175°
2026-04-14 10:57 46.33290 14.19328 9903 ft 313 kts 175°
2026-04-14 10:58 46.31153 14.19611 9712 ft 302 kts 175°
2026-04-14 10:58 46.29095 14.19879 9577 ft 290 kts 174°
2026-04-14 10:58 46.27115 14.20127 9366 ft 281 kts 175°
2026-04-14 10:58 46.25183 14.20358 9038 ft 277 kts 175°
2026-04-14 10:59 46.23303 14.20673 8871 ft 266 kts 164°
2026-04-14 10:59 46.21632 14.21598 8712 ft 256 kts 156°
2026-04-14 10:59 46.20018 14.22653 8407 ft 252 kts 155°
2026-04-14 10:59 46.18443 14.23689 8132 ft 246 kts 155°
2026-04-14 11:00 46.16884 14.24709 7744 ft 244 kts 154°
2026-04-14 11:00 46.15356 14.25695 7398 ft 242 kts 155°
2026-04-14 11:00 46.13838 14.26663 7228 ft 233 kts 154°
2026-04-14 11:00 46.12562 14.27990 7016 ft 225 kts 130°
2026-04-14 11:01 46.11598 14.29755 6761 ft 223 kts 125°
2026-04-14 11:01 46.10689 14.31554 6519 ft 222 kts 125°
2026-04-14 11:01 46.09785 14.33349 6270 ft 221 kts 124°
2026-04-14 11:01 46.08869 14.35135 6055 ft 221 kts 125°
2026-04-14 11:02 46.07954 14.36909 6001 ft 220 kts 125°
2026-04-14 11:02 46.07041 14.38683 6006 ft 221 kts 125°
2026-04-14 11:02 46.06126 14.40459 6009 ft 221 kts 125°
2026-04-14 11:02 46.05272 14.42277 6008 ft 215 kts 116°
2026-04-14 11:03 46.04702 14.44220 6002 ft 207 kts 111°
2026-04-14 11:03 46.04210 14.46126 5772 ft 202 kts 110°
2026-04-14 11:03 46.03721 14.48024 5415 ft 203 kts 110°
2026-04-14 11:03 46.03236 14.49886 5260 ft 194 kts 109°
2026-04-14 11:04 46.02765 14.51636 5128 ft 186 kts 110°
2026-04-14 11:04 46.02309 14.53340 4948 ft 180 kts 107°
2026-04-14 11:04 46.02269 14.55090 4652 ft 178 kts 70°
2026-04-14 11:04 46.03038 14.56490 4246 ft 187 kts 41°
2026-04-14 11:05 46.04145 14.57594 4011 ft 198 kts 35°
2026-04-14 11:05 46.05308 14.58692 4010 ft 201 kts 35°
2026-04-14 11:05 46.06481 14.59796 4010 ft 202 kts 35°
2026-04-14 11:05 46.07661 14.60905 4010 ft 202 kts 35°
2026-04-14 11:06 46.08832 14.62005 4004 ft 197 kts 35°
2026-04-14 11:06 46.10022 14.62824 3999 ft 189 kts 11°
2026-04-14 11:06 46.10889 14.62744 3971 ft 190 kts 348°
2026-04-14 11:06 46.12488 14.61722 3559 ft 188 kts 336°
2026-04-14 11:07 46.13630 14.60839 3251 ft 182 kts 335°
2026-04-14 11:07 46.14700 14.60003 3131 ft 171 kts 335°
2026-04-14 11:07 46.15362 14.59362 3078 ft 171 kts 316°
2026-04-14 11:07 46.16091 14.58005 2974 ft 170 kts 308°
2026-04-14 11:08 46.16781 14.56658 2794 ft 161 kts 308°
2026-04-14 11:08 46.17413 14.55425 2585 ft 150 kts 307°
2026-04-14 11:08 46.18025 14.54235 2387 ft 146 kts 307°
2026-04-14 11:08 46.18615 14.53058 2189 ft 144 kts 306°
2026-04-14 11:09 46.19214 14.51906 1989 ft 142 kts 307°
2026-04-14 11:09 46.19805 14.50768 1771 ft 141 kts 307°
2026-04-14 11:09 46.20389 14.49639 1579 ft 140 kts 306°
2026-04-14 11:10 46.21547 14.47373 1233 ft 140 kts 306°
2026-04-14 11:10 46.22027 14.46434 1229 ft 78 kts 306°
2026-04-14 11:10 46.22181 14.46134 1242 ft 14 kts 311°
2026-04-14 11:10 46.22253 14.46131 1247 ft 8 kts 37°
2026-04-14 11:11 46.22298 14.46180 1248 ft 8 kts 37°
2026-04-14 11:11 46.22344 14.46224 1243 ft 8 kts 23°
2026-04-14 11:11 46.22418 14.46137 1247 ft 18 kts 306°
2026-04-14 11:11 46.22489 14.45994 1246 ft 17 kts 305°
2026-04-14 11:12 46.22559 14.45851 1250 ft 18 kts 305°
2026-04-14 11:12 46.22630 14.45712 1249 ft 17 kts 308°
2026-04-14 11:12 46.22697 14.45585 1252 ft 15 kts 307°
2026-04-14 11:12 46.22755 14.45472 1255 ft 12 kts 305°
2026-04-14 11:13 46.22799 14.45381 1257 ft 9 kts 305°
2026-04-14 11:13 46.22802 14.45375 1268 ft 0 kts 305°
2026-04-14 11:13 46.22803 14.45374 1268 ft 2 kts 306°
2026-04-14 11:14 46.22829 14.45327 1261 ft 5 kts 317°
2026-04-14 11:14 46.22888 14.45366 1262 ft 14 kts 37°
2026-04-14 11:14 46.22934 14.45411 1260 ft 6 kts 11°
2026-04-14 11:14 46.22970 14.45435 1262 ft 6 kts 33°
2026-04-14 11:15 46.22992 14.45457 1261 ft 3 kts 35°
2026-04-14 11:15 46.23003 14.45469 1261 ft 0 kts 37°